Date,TemperatureHighF,TemperatureAvgF,TemperatureLowF,DewpointHighF,DewpointAvgF,DewpointLowF,HumidityHigh,HumidityAvg,HumidityLow,PressureMaxIn,PressureMinIn,WindSpeedMaxMPH,WindSpeedAvgMPH,GustSpeedMaxMPH,PrecipitationSumIn
2013-2-1,28,16,10,27,6,0,95,66,47,30.43,29.89,12,3,29,0.02
2013-2-2,30,21,9,29,18,5,96,86,68,30.38,30.01,4,1,10,0.01
2013-2-3,30,27,25,28,22,17,95,80,67,30.14,29.91,5,1,18,0.00
2013-2-4,41,29,16,38,22,13,95,78,52,30.14,29.83,4,1,19,0.11
2013-2-5,46,40,36,38,37,33,98,89,69,29.98,29.83,5,0,17,0.04
2013-2-6,46,39,32,32,29,26,80,67,49,30.25,29.98,4,1,17,0.00
2013-2-7,62,44,32,37,31,27,85,64,30,30.24,29.85,3,1,10,0.00
2013-2-8,48,41,34,44,33,25,94,73,64,30.27,29.77,10,3,26,0.11
2013-2-9,44,33,25,25,20,16,80,60,37,30.42,30.25,2,1,12,0.00
2013-2-10,59,40,24,43,28,20,89,67,28,30.25,29.85,7,1,21,0.12
2013-2-11,60,53,42,49,36,24,84,55,28,30.03,29.80,11,4,28,0.01
2013-2-12,53,41,29,28,25,20,85,57,29,30.13,29.88,4,1,13,0.00
2013-2-13,42,35,30,34,30,24,94,81,59,29.92,29.68,7,1,16,0.08
2013-2-14,53,40,28,36,32,27,97,76,45,29.97,29.85,7,2,19,0.01
2013-2-15,40,36,31,37,32,26,95,87,76,30.10,29.93,3,0,12,0.14
2013-2-16,34,28,22,27,18,8,90,68,42,30.09,29.97,8,2,19,0.00
2013-2-17,32,23,17,12,7,3,77,51,30,30.27,30.08,6,2,19,0.00
2013-2-18,59,38,15,34,21,11,87,56,35,30.27,29.79,7,2,19,0.00
2013-2-19,51,41,29,39,28,14,89,59,38,30.07,29.74,9,5,33,0.06
2013-2-20,35,28,22,16,13,10,63,52,39,30.30,30.07,6,3,19,0.00
2013-2-21,36,26,14,19,15,11,86,64,48,30.37,30.16,5,1,13,0.00
2013-2-22,62,42,30,48,36,18,97,81,52,30.16,29.86,7,1,20,0.14
2013-2-23,52,44,33,40,35,28,90,73,46,29.95,29.83,5,1,14,0.00
2013-2-24,46,35,25,29,24,20,95,68,40,30.15,29.89,5,1,18,0.00
2013-2-25,47,35,21,25,21,18,91,59,37,30.18,29.90,7,2,14,0.00
2013-2-26,52,45,38,47,37,22,95,76,51,29.91,29.38,8,2,19,0.56
2013-2-27,44,38,35,39,28,-100,90,79,75,29.75,29.52,7,-48,19,0.10
2013-2-28,35,34,33,34,31,28,96,86,78,29.90,29.69,5,2,17,0.05